{"data":{"norad_id":67507,"intl_designator":"2026-012Q","name":"STARLINK-36521","alt_names":[],"object_type":"PAYLOAD","status":"ACTIVE","operator":null,"country":"US","launch_date":"2026-01-18","launch_site_code":"AFETR","launch_vehicle":null,"mission":null,"orbit_class":"UNKNOWN","rcs_meters":null,"size_class":null,"mass_kg":null,"dimensions":null,"purposes":["comms"],"wikipedia_slug":null,"has_3d_model":false,"image_url":null,"decayed_at":null,"tle_current":{"epoch":"2026-05-24T23:27:45.271584Z","epoch_age_seconds":74204,"freshness":"FRESH","line1":"1 67507U 26012Q   26144.97760731  .00009043  00000+0  33769-3 0  9999","line2":"2 67507  43.0019 243.1677 0001018 273.6266  86.4469 15.27583996 19435","mean_motion":15.27583996,"eccentricity":0.0001018,"inclination_deg":43.0019,"raan_deg":243.1677,"arg_perigee_deg":273.6266,"mean_anomaly_deg":86.4469,"bstar":0.00033769,"rev_number":1943,"period_min":94.266502121694,"perigee_km":482.33866307769,"apogee_km":483.73559813068,"semimajor_km":6861.1741306042,"source":"CELESTRAK","updated_at":"2026-05-25T13:38:21.569457Z"}}}